• En España
  • Lista de países
  • Para 7 días
  • Temperatura del agua
  • Mapa Satelital
  • El tiempo en el mapa
  • Informadores
  • user-avatar
    Iniciar sesión

    Tiempo cada hora Tirana

    Hoy, 20 Febrero, Martes

    Tiempo Temperatura Precipitaciones Viento Presión Humedad
    00:00 +7°C° 0,2 mm 4 mps 750 mmHg 82%
    01:00 +7°C° 0,2 mm 4 mps 750 mmHg 82%
    02:00 +7°C° 0,4 mm 4 mps 749 mmHg 82%
    03:00 +7°C° 0,4 mm 4 mps 749 mmHg 82%
    04:00 +7°C° 0,4 mm 4 mps 749 mmHg 82%
    05:00 +7°C° 0,6 mm 4 mps 749 mmHg 82%
    06:00 +7°C° 0,6 mm 4 mps 748 mmHg 82%
    07:00 +7°C° 0,6 mm 4 mps 748 mmHg 82%
    08:00 +8°C° 0,7 mm 4 mps 748 mmHg 79%
    09:00 +10°C° 0,7 mm 4 mps 748 mmHg 76%
    10:00 +11°C° 0,7 mm 4 mps 748 mmHg 73%
    11:00 +11°C° 1,1 mm 4 mps 748 mmHg 72%
    12:00 +11°C° 1,1 mm 4 mps 747 mmHg 72%
    13:00 +12°C° 1,1 mm 4 mps 747 mmHg 71%
    14:00 +11°C° 2,3 mm 4 mps 747 mmHg 76%
    15:00 +10°C° 2,3 mm 3 mps 746 mmHg 81%
    16:00 +9°C° 2,3 mm 3 mps 746 mmHg 87%
    17:00 +9°C° 0,7 mm 3 mps 746 mmHg 86%
    18:00 +8°C° 0,7 mm 4 mps 746 mmHg 85%
    19:00 +8°C° 0,7 mm 4 mps 746 mmHg 83%
    20:00 +8°C° 0,3 mm 4 mps 746 mmHg 83%
    21:00 +7°C° 0,3 mm 4 mps 746 mmHg 82%
    22:00 +7°C° 0,3 mm 5 mps 746 mmHg 82%
    23:00 +7°C° 0,3 mm 5 mps 746 mmHg 82%

    Mañana, 21 Febrero, Miércoles

    Tiempo Temperatura Precipitaciones Viento Presión Humedad
    00:00 +7°C° 0,3 mm 5 mps 746 mmHg 81%
    01:00 +7°C° 0,3 mm 5 mps 746 mmHg 81%
    02:00 +7°C° 0,3 mm 5 mps 745 mmHg 81%
    03:00 +6°C° 0,3 mm 5 mps 745 mmHg 81%
    04:00 +6°C° 0,3 mm 5 mps 745 mmHg 81%
    05:00 +6°C° 0,1 mm 5 mps 745 mmHg 81%
    06:00 +6°C° 0,1 mm 5 mps 745 mmHg 81%
    07:00 +6°C° 0,1 mm 5 mps 745 mmHg 80%
    08:00 +7°C° 0,1 mm 5 mps 745 mmHg 77%
    09:00 +9°C° 0,1 mm 5 mps 745 mmHg 75%
    10:00 +10°C° 0,1 mm 5 mps 745 mmHg 72%
    11:00 +11°C° 0,3 mm 4 mps 745 mmHg 72%
    12:00 +11°C° 0,3 mm 4 mps 745 mmHg 72%
    13:00 +12°C° 0,3 mm 4 mps 745 mmHg 72%
    14:00 +11°C° 0,2 mm 4 mps 744 mmHg 72%
    15:00 +11°C° 0,2 mm 4 mps 744 mmHg 73%
    16:00 +11°C° 0,2 mm 4 mps 744 mmHg 73%
    17:00 +9°C° 0,4 mm 5 mps 744 mmHg 76%
    18:00 +9°C° 0,4 mm 5 mps 744 mmHg 78%
    19:00 +8°C° 0,4 mm 5 mps 744 mmHg 80%
    20:00 +8°C° 0,8 mm 5 mps 745 mmHg 80%
    21:00 +8°C° 0,8 mm 5 mps 745 mmHg 80%
    22:00 +8°C° 0,8 mm 5 mps 745 mmHg 80%
    23:00 +8°C° 0,6 mm 5 mps 745 mmHg 82%

    Pasado mañana, 22 Febrero, Jueves

    Tiempo Temperatura Precipitaciones Viento Presión Humedad
    00:00 +8°C° 0,6 mm 5 mps 745 mmHg 84%
    01:00 +7°C° 0,6 mm 5 mps 745 mmHg 86%
    02:00 +7°C° 0,3 mm 5 mps 745 mmHg 85%
    03:00 +7°C° 0,3 mm 5 mps 746 mmHg 84%
    04:00 +7°C° 0,3 mm 5 mps 746 mmHg 83%
    05:00 +7°C° 0,1 mm 5 mps 746 mmHg 83%
    06:00 +7°C° 0,1 mm 5 mps 746 mmHg 82%
    07:00 +6°C° 0,1 mm 5 mps 746 mmHg 82%
    08:00 +8°C° 0,1 mm 5 mps 747 mmHg 77%
    09:00 +10°C° 0,1 mm 6 mps 747 mmHg 72%
    10:00 +13°C° 0,1 mm 6 mps 747 mmHg 67%
    11:00 +13°C° 0,1 mm 6 mps 747 mmHg 65%
    12:00 +14°C° 0,1 mm 6 mps 747 mmHg 62%
    13:00 +15°C° 0,1 mm 6 mps 746 mmHg 60%
    14:00 +15°C° 0,3 mm 6 mps 746 mmHg 62%
    15:00 +14°C° 0,3 mm 6 mps 746 mmHg 64%
    16:00 +14°C° 0,3 mm 7 mps 746 mmHg 65%
    17:00 +12°C° 0,9 mm 7 mps 746 mmHg 70%
    18:00 +11°C° 0,9 mm 7 mps 747 mmHg 74%
    19:00 +10°C° 0,9 mm 7 mps 747 mmHg 78%
    20:00 +10°C° 1,1 mm 7 mps 747 mmHg 78%
    21:00 +9°C° 1,1 mm 7 mps 748 mmHg 79%
    22:00 +9°C° 1,1 mm 6 mps 748 mmHg 80%
    23:00 +9°C° 0,6 mm 6 mps 748 mmHg 80%

    23 Febrero, Viernes

    Tiempo Temperatura Precipitaciones Viento Presión Humedad
    00:00 +8°C° 0,6 mm 6 mps 748 mmHg 80%
    01:00 +8°C° 0,6 mm 5 mps 748 mmHg 80%
    02:00 +8°C° 0,6 mm 5 mps 748 mmHg 81%
    03:00 +8°C° 0,6 mm 5 mps 748 mmHg 81%
    04:00 +8°C° 0,6 mm 4 mps 748 mmHg 81%
    05:00 +8°C° 0,3 mm 4 mps 748 mmHg 81%
    06:00 +8°C° 0,3 mm 4 mps 748 mmHg 81%
    07:00 +8°C° 0,3 mm 4 mps 748 mmHg 81%
    08:00 +11°C° 0,1 mm 4 mps 748 mmHg 76%
    09:00 +12°C° 0,1 mm 4 mps 748 mmHg 72%
    10:00 +14°C° 0,1 mm 3 mps 748 mmHg 67%
    11:00 +14°C° 0 mm 3 mps 748 mmHg 63%
    12:00 +16°C° 0 mm 3 mps 748 mmHg 58%
    13:00 +17°C° 0 mm 2 mps 748 mmHg 54%
    14:00 +17°C° 0 mm 2 mps 747 mmHg 56%
    15:00 +17°C° 0 mm 2 mps 747 mmHg 58%
    16:00 +16°C° 0 mm 3 mps 747 mmHg 60%
    17:00 +14°C° 0 mm 3 mps 747 mmHg 64%
    18:00 +13°C° 0 mm 3 mps 747 mmHg 69%
    19:00 +11°C° 0 mm 4 mps 747 mmHg 73%
    20:00 +11°C° 0 mm 4 mps 747 mmHg 74%
    21:00 +9°C° 0 mm 5 mps 747 mmHg 74%
    22:00 +9°C° 0 mm 5 mps 747 mmHg 75%
    23:00 +9°C° 0 mm 5 mps 747 mmHg 75%

    24 Febrero, Sábado

    Tiempo Temperatura Precipitaciones Viento Presión Humedad
    00:00 +9°C° 0 mm 6 mps 747 mmHg 75%
    01:00 +9°C° 0 mm 6 mps 747 mmHg 75%
    02:00 +9°C° 0 mm 6 mps 746 mmHg 74%
    03:00 +9°C° 0 mm 6 mps 745 mmHg 74%
    04:00 +9°C° 0 mm 7 mps 745 mmHg 73%
    05:00 +9°C° 0,4 mm 6 mps 745 mmHg 73%
    06:00 +9°C° 0,4 mm 6 mps 745 mmHg 73%
    07:00 +9°C° 0,4 mm 5 mps 744 mmHg 73%
    08:00 +10°C° 0,4 mm 5 mps 745 mmHg 72%
    09:00 +12°C° 0,4 mm 4 mps 745 mmHg 71%
    10:00 +12°C° 0,4 mm 3 mps 745 mmHg 70%
    11:00 +13°C° 0,2 mm 4 mps 745 mmHg 67%
    12:00 +13°C° 0,2 mm 5 mps 745 mmHg 65%
    13:00 +14°C° 0,2 mm 6 mps 745 mmHg 63%
    14:00 +13°C° 0 mm 6 mps 745 mmHg 64%
    15:00 +13°C° 0 mm 6 mps 744 mmHg 64%
    16:00 +13°C° 0 mm 6 mps 744 mmHg 65%
    17:00 +10°C° 0 mm 6 mps 744 mmHg 67%
    18:00 +9°C° 0 mm 6 mps 745 mmHg 69%
    19:00 +8°C° 0 mm 6 mps 745 mmHg 72%
    20:00 +8°C° 0 mm 6 mps 745 mmHg 72%
    21:00 +7°C° 0 mm 6 mps 746 mmHg 72%
    22:00 +7°C° 0 mm 6 mps 746 mmHg 72%
    23:00 +7°C° 0 mm 6 mps 746 mmHg 72%

    25 Febrero, Domingo

    Tiempo Temperatura Precipitaciones Viento Presión Humedad
    00:00 +5°C° 0 mm 6 mps 746 mmHg 73%
    01:00 +5°C° 0 mm 6 mps 747 mmHg 73%
    02:00 +5°C° 0 mm 5 mps 746 mmHg 73%
    03:00 +5°C° 0 mm 5 mps 746 mmHg 73%
    04:00 +5°C° 0 mm 5 mps 746 mmHg 73%
    05:00 +5°C° 0 mm 5 mps 746 mmHg 72%
    06:00 +3°C° 0 mm 5 mps 746 mmHg 72%
    07:00 +3°C° 0 mm 5 mps 747 mmHg 71%
    08:00 +5°C° 0,1 mm 5 mps 747 mmHg 69%
    09:00 +6°C° 0,1 mm 4 mps 747 mmHg 66%
    10:00 +8°C° 0,1 mm 4 mps 747 mmHg 63%
    11:00 +8°C° 0,5 mm 4 mps 746 mmHg 67%
    12:00 +9°C° 0,5 mm 3 mps 746 mmHg 70%
    13:00 +10°C° 0,5 mm 3 mps 746 mmHg 73%
    14:00 +9°C° 0,4 mm 3 mps 746 mmHg 77%
    15:00 +9°C° 0,4 mm 3 mps 746 mmHg 82%
    16:00 +8°C° 0,4 mm 3 mps 746 mmHg 86%
    17:00 +8°C° 0 mm 3 mps 746 mmHg 88%
    18:00 +8°C° 0 mm 3 mps 746 mmHg 89%
    19:00 +7°C° 0 mm 3 mps 746 mmHg 90%
    20:00 +7°C° 0,4 mm 3 mps 746 mmHg 88%
    21:00 +6°C° 0,4 mm 4 mps 746 mmHg 86%
    22:00 +6°C° 0,4 mm 4 mps 746 mmHg 84%
    23:00 +6°C° 3,4 mm 5 mps 745 mmHg 86%
    Mostrar más